Flag Weather past 2 weeks in Dülmen, North Rhine-Westphalia, Germany

Now
30 °F

Clear.


Feels Like: 23 °F
Forecast: 31 / 41 °F
Wind: 7 mph from East

Location: Dortmund / Wickede

Current Time: Nov 29, 2014 at 7:33:14 AM

Latest Report: Nov 29, 2014 at 6:50 AM


Visibility: 5 mi

Pressure: 29.95 "Hg

Humidity: 93%

Dew point: 28 °F

Location of DülmenLocation

Historic Weather in Dülmen — Graph

°F

Dülmen temperature yesterday

Maximum temperature yesterday: 45 °F (at 12:20 PM)
Minimum temperature yesterday: 34 °F (at 8:50 PM)
Average temperature yesterday: 39 °F

Past Weeks' High & Low Weather Summary

 TemperatureHumidityPressure
High61 °F (Nov 23, 11:20 AM)93% (Nov 15, 5:50 AM)30.33 "Hg (Nov 15, 5:50 AM)
Low30 °F (Nov 29, 5:50 AM)55% (Nov 23, 11:20 AM)29.50 "Hg (Nov 16, 12:50 PM)
Average45 °F81%29.95 "Hg
* Reported Nov 14 6:20 AM — Nov 29 6:20 AM, Dülmen, Weather by CustomWeather, © 2014

Note: Actual official high and low records may vary slightly from our data, if they occured in-between our weather recording intervals... More about our weather records

Advertising

Dülmen weather history for previous 24 hours

 ConditionsComfort  
Time TempWeatherWind HumidityBarometerVisibility
6:20 AM
Nov 29
32 °FClear.6 mph87%29.95 "Hg6 mi
5:50 AM30 °FClear.5 mph93%29.95 "Hg6 mi
5:20 AM32 °FClear.3 mph87%29.95 "Hg6 mi
10:50 PM
Nov 28
34 °FClear.10 mph87%29.92 "Hg10 mi
10:20 PM34 °FClear.7 mph87%29.92 "Hg10 mi
9:50 PM34 °FClear.8 mph87%29.92 "Hg10 mi
9:20 PM34 °FClear.8 mph87%29.92 "Hg10 mi
8:50 PM34 °FClear.7 mph87%29.92 "Hg10 mi
8:20 PM36 °FClear.7 mph81%29.89 "Hg10 mi
7:50 PM36 °FPassing clouds.8 mph87%29.89 "HgN/A
7:20 PM36 °FClear.8 mph87%29.89 "Hg10 mi
6:50 PM36 °FClear.9 mph87%29.89 "Hg10 mi
6:20 PM37 °FPassing clouds.10 mph81%29.86 "HgN/A
5:50 PM37 °FClear.8 mph87%29.86 "Hg10 mi
5:20 PM39 °FPassing clouds.9 mph81%29.86 "HgN/A
4:50 PM39 °FClear.6 mph81%29.86 "Hg10 mi
4:20 PM41 °FPassing clouds.9 mph76%29.86 "HgN/A
3:50 PM41 °FPassing clouds.10 mph81%29.83 "HgN/A
3:20 PM43 °FPassing clouds.12 mph76%29.83 "HgN/A
2:50 PM45 °FSunny.12 mph76%29.83 "Hg10 mi
2:20 PM45 °FPassing clouds.13 mph71%29.83 "HgN/A
1:50 PM45 °FPassing clouds.8 mph76%29.83 "HgN/A
1:20 PM45 °FPassing clouds.9 mph76%29.83 "HgN/A
12:50 PM45 °FPassing clouds.10 mph76%29.83 "HgN/A
12:20 PM45 °FPassing clouds.9 mph76%29.83 "HgN/A
11:50 AM43 °FClear.6 mph81%29.83 "Hg6 mi
11:20 AM41 °FClear.6 mph87%29.83 "Hg5 mi
10:50 AM41 °FClear.8 mph81%29.83 "Hg4 mi
10:20 AM39 °FClear.7 mph87%29.83 "Hg4 mi
9:50 AM39 °FClear.9 mph87%29.80 "Hg4 mi
9:20 AM39 °FClear.8 mph87%29.80 "Hg4 mi
8:50 AM37 °FClear.8 mph93%29.80 "Hg6 mi
8:20 AM37 °FClear.6 mph93%29.80 "Hg5 mi
7:50 AM37 °FClear.5 mph93%29.80 "Hg5 mi
7:20 AM37 °FClear.6 mph87%29.80 "Hg10 mi
Weather by CustomWeather, © 2014

See weather overviewHow to use our weather pages